Weather History for Rickenbacker, OH

Change the Weather History Date:

Thursday, June 27, 2013

  Actual Average Record
Temperature  
Mean Temperature 76 °F -  
Max Temperature 86 °F 83 °F 93 °F (1998)
Min Temperature 65 °F 62 °F 35 °F (2004)
Cooling Degree Days 10    
Growing Degree Days 26 (Base 50)    
Moisture  
Dew Point 65 °F    
Average Humidity 73    
Maximum Humidity 88    
Minimum Humidity 48    
Precipitation  
Precipitation 0.00 in - - ()
Sea Level Pressure  
Sea Level Pressure 29.74 in    
Wind  
Wind Speed 6 mph (WSW)    
Max Wind Speed 16 mph    
Max Gust Speed 22 mph    
Visibility 9 miles    
Events Rain    
Averages and records for this station are not official NWS values.
T = Trace of Precipitation, MM = Missing Value Source: NWS Daily Summary

Daily Weather History Graph

Daily Weather History Graph

Search for Another Location

Airport:

Trip Planner

Search our weather history database for the weather conditions in past years. The results will help you decide how hot, cold, wet, or windy it might be!

Date:

Astronomy

Jun. 27, 2013 Rise Set
Actual Time 6:05 AM EDT 9:04 PM EDT
Civil Twilight 5:32 AM EDT 9:36 PM EDT
Nautical Twilight 4:51 AM EDT 10:18 PM EDT
Astronomical Twilight 4:03 AM EDT 11:06 PM EDT
Moon No Moon Rise 11:04 AM EDT (6/27)
Length of Visible Light 16h 03m
Length of Day
14h 58m
Waning Gibbous, 76% of the Moon is Illuminated
Jun 27
Waning Gibbous
Jun 30
Last Quarter
Jul 8
New
Jul 15
First Quarter
Jul 22
Full

Hourly Weather History & Observations

Time (EDT) Temp. Heat Index Dew Point Humidity Pressure Visibility Wind Dir Wind Speed Gust Speed Precip Events Conditions
12:15 AM 68.4 °F - 64.0 °F 86% 29.82 in 10.0 mi South 3.5 mph - N/A   Overcast
12:35 AM 68.7 °F - 64.6 °F 87% 29.82 in 7.0 mi SSW 4.6 mph - N/A Rain Light Rain
12:55 AM 68.9 °F - 64.8 °F 87% 29.81 in 7.0 mi South 6.9 mph - N/A Rain Light Rain
1:15 AM 68.9 °F - 64.8 °F 87% 29.79 in 5.0 mi South 4.6 mph - N/A Rain Light Rain
1:35 AM 68.9 °F - 64.8 °F 87% 29.78 in 7.0 mi South 4.6 mph - N/A Rain Rain
2:15 AM 68.9 °F - 64.9 °F 87% 29.78 in 7.0 mi South 3.5 mph - N/A   Overcast
2:35 AM 68.9 °F - 64.8 °F 87% 29.78 in 7.0 mi South 3.5 mph - N/A   Overcast
2:55 AM 68.9 °F - 64.8 °F 87% 29.77 in 7.0 mi SSE 4.6 mph - N/A   Overcast
3:15 AM 68.7 °F - 64.6 °F 87% 29.77 in 7.0 mi South 3.5 mph - N/A   Overcast
3:35 AM 68.5 °F - 64.6 °F 87% 29.76 in 5.0 mi South 3.5 mph - N/A   Overcast
3:55 AM 68.5 °F - 64.8 °F 88% 29.77 in 5.0 mi South 4.6 mph - N/A   Overcast
4:15 AM 68.7 °F - 64.8 °F 87% 29.76 in 7.0 mi SSW 5.8 mph - N/A   Overcast
4:35 AM 68.5 °F - 64.6 °F 87% 29.77 in 5.0 mi SSW 4.6 mph - N/A   Overcast
4:55 AM 68.4 °F - 64.4 °F 87% 29.77 in 7.0 mi SSW 5.8 mph - N/A   Overcast
5:15 AM 68.2 °F - 64.0 °F 87% 29.77 in 7.0 mi WSW 9.2 mph - N/A Rain Heavy Rain
5:35 AM 66.6 °F - 62.2 °F 86% 29.77 in 1.8 mi SW 6.9 mph - N/A Rain Heavy Rain
5:55 AM 65.8 °F - 61.9 °F 87% 29.77 in 2.5 mi SSW 3.5 mph - N/A Rain Rain
6:15 AM 65.8 °F - 62.1 °F 88% 29.77 in 10.0 mi Calm Calm - N/A Rain Light Rain
6:35 AM 66.2 °F - 62.4 °F 88% 29.77 in 3.0 mi South 3.5 mph - N/A Rain Rain
6:55 AM 66.2 °F - 62.6 °F 88% 29.77 in 7.0 mi Calm Calm - N/A Rain Rain
7:15 AM 66.4 °F - 62.6 °F 88% 29.77 in 5.0 mi South 3.5 mph - N/A Rain Light Rain
7:35 AM 66.4 °F - 62.6 °F 88% 29.77 in 10.0 mi South 3.5 mph - N/A   Overcast
7:55 AM 66.6 °F - 62.8 °F 88% 29.77 in 10.0 mi SSW 3.5 mph - N/A   Unknown
8:15 AM 66.9 °F - 62.8 °F 87% 29.76 in 10.0 mi SSW 4.6 mph - N/A   Unknown
8:35 AM 67.1 °F - 63.0 °F 87% 29.77 in 10.0 mi SSW 5.8 mph - N/A   Unknown
8:55 AM 67.5 °F - 63.3 °F 87% 29.76 in 7.0 mi SW 5.8 mph - N/A   Unknown
10:15 AM 69.6 °F - 64.8 °F 84% 29.76 in 7.0 mi WSW 6.9 mph - N/A   Overcast
10:35 AM 70.0 °F - 64.9 °F 84% 29.76 in 10.0 mi WSW 8.1 mph - N/A   Overcast
11:15 AM 71.4 °F - 65.3 °F 81% 29.76 in 10.0 mi West 8.1 mph - N/A   Overcast
12:35 PM 73.2 °F - 66.0 °F 78% 29.76 in 10.0 mi West 4.6 mph - N/A   Overcast
12:55 PM 73.9 °F - 66.4 °F 77% 29.76 in 7.0 mi SW 3.5 mph - N/A   Overcast
1:15 PM 75.6 °F - 66.9 °F 74% 29.76 in 10.0 mi West 3.5 mph - N/A   Overcast
1:35 PM 76.8 °F - 67.1 °F 72% 29.75 in 10.0 mi West 3.5 mph - N/A   Overcast
1:55 PM 78.6 °F - 67.1 °F 68% 29.74 in 10.0 mi WNW 5.8 mph - N/A   Mostly Cloudy
2:15 PM 80.4 °F 82.7 °F 66.9 °F 63% 29.74 in 10.0 mi West 8.1 mph - N/A   Mostly Cloudy
2:35 PM 79.9 °F - 66.9 °F 64% 29.74 in 10.0 mi NW 4.6 mph - N/A   Overcast
2:55 PM 81.1 °F 83.5 °F 67.1 °F 62% 29.74 in 10.0 mi West 13.8 mph 17.3 mph N/A   Overcast
3:15 PM 83.3 °F 85.9 °F 67.1 °F 58% 29.73 in 10.0 mi WNW 6.9 mph - N/A   Mostly Cloudy
3:35 PM 82.8 °F 85.1 °F 66.4 °F 58% 29.73 in 10.0 mi West 8.1 mph - N/A   Overcast
3:55 PM 82.8 °F 85.3 °F 67.3 °F 59% 29.73 in 10.0 mi North 6.9 mph - N/A Rain Light Rain
4:15 PM 80.6 °F 83.2 °F 67.8 °F 65% 29.72 in 10.0 mi North 5.8 mph - N/A   Overcast
4:35 PM 80.8 °F 83.3 °F 67.5 °F 64% 29.72 in 10.0 mi West 4.6 mph - N/A   Mostly Cloudy
4:55 PM 82.9 °F 85.8 °F 67.8 °F 60% 29.71 in 10.0 mi West 6.9 mph - N/A   Overcast
5:15 PM 84.4 °F 87.1 °F 67.1 °F 56% 29.70 in 10.0 mi West 16.1 mph 20.7 mph N/A   Scattered Clouds
5:35 PM 86.0 °F 87.3 °F 64.0 °F 48% 29.70 in 10.0 mi WNW 10.4 mph 20.7 mph N/A   Scattered Clouds
5:55 PM 85.3 °F 87.1 °F 65.5 °F 51% 29.69 in 10.0 mi West 13.8 mph 20.7 mph N/A   Scattered Clouds
6:15 PM 85.5 °F 87.4 °F 65.7 °F 51% 29.69 in 10.0 mi WNW 10.4 mph - N/A   Scattered Clouds
6:35 PM 85.6 °F 87.4 °F 65.3 °F 50% 29.69 in 10.0 mi WNW 15.0 mph 21.9 mph N/A   Mostly Cloudy
6:55 PM 85.3 °F 87.1 °F 65.1 °F 51% 29.69 in 10.0 mi West 13.8 mph 18.4 mph N/A   Scattered Clouds
7:15 PM 85.1 °F 86.4 °F 64.2 °F 49% 29.69 in 10.0 mi West 12.7 mph 19.6 mph N/A   Clear
7:35 PM 84.4 °F 85.6 °F 64.0 °F 50% 29.70 in 10.0 mi WNW 13.8 mph 17.3 mph N/A   Clear
7:55 PM 84.4 °F 85.9 °F 64.6 °F 51% 29.70 in 10.0 mi WNW 11.5 mph - N/A   Clear
8:15 PM 83.7 °F 85.3 °F 65.1 °F 53% 29.70 in 10.0 mi WNW 9.2 mph - N/A   Clear
8:35 PM 82.2 °F 84.2 °F 65.8 °F 57% 29.70 in 10.0 mi WNW 8.1 mph - N/A   Clear
8:55 PM 81.3 °F 83.3 °F 65.7 °F 59% 29.70 in 10.0 mi West 5.8 mph - N/A   Clear
9:15 PM 80.4 °F 82.4 °F 65.8 °F 61% 29.70 in 10.0 mi West 5.8 mph - N/A   Clear
9:35 PM 79.2 °F - 66.2 °F 64% 29.70 in 10.0 mi West 3.5 mph - N/A   Clear
9:55 PM 78.8 °F - 66.2 °F 65% 29.71 in 10.0 mi West 4.6 mph - N/A   Scattered Clouds
10:15 PM 77.9 °F - 66.4 °F 68% 29.70 in 10.0 mi WSW 4.6 mph - N/A   Clear
10:35 PM 76.8 °F - 66.4 °F 70% 29.70 in 10.0 mi SW 4.6 mph - N/A   Clear
10:55 PM 75.0 °F - 66.2 °F 74% 29.70 in 10.0 mi SW 4.6 mph - N/A   Clear
11:15 PM 74.1 °F - 66.2 °F 76% 29.69 in 10.0 mi SW 4.6 mph - N/A   Clear
11:35 PM 73.4 °F - 66.0 °F 78% 29.68 in 10.0 mi SW 5.8 mph - N/A   Clear
11:55 PM 73.4 °F - 66.2 °F 78% 29.67 in 10.0 mi SSW 4.6 mph - N/A   Clear